Location: Degersen
(52.2871°N, 9.5716°E)
Time: 23:39:38
(UTC+00:00)

SMAP - Pass Details

Date: 20 January 2026
Orbit: 682 x 683 km, 98.1° (Epoch: 18 February)

Event Time Altitude Azimuth Distance (km) Brightness Sun altitude
Rises 06:25:42 0° 11° (N) 3,061 6.3 -8.1°
Reaches altitude 10° 06:28:00 10° 6° (N) 2,140 5.5 -7.7°
Maximum altitude 06:32:31 52° 291° (WNW) 856 3.2 -7.1°
Drops below altitude 10° 06:37:01 10° 216° (SW) 2,124 5.5 -6.5°
Sets 06:39:18 0° 212° (SSW) 3,035 6.3 -6.2°
